Other Surface Observations
Issued by NWS Tucson, AZ

Home | Current Version | Previous Version | Text Only | Print | Product List | Glossary On
Versions: 1 2 3 4 5 6 7 8 9 10 11 12 13 14 15 16 17 18 19 20 21 22 23 24 25 26 27 28 29 30 31 32 33 34 35 36 37 38 39 40 41 42 43 44 45 46 47 48 49 50
000
SXUS55 KTWC 040616
OSOTWC

WEATHER ROUNDUP FOR SOUTHEAST ARIZONA
NATIONAL WEATHER SERVICE TUCSON AZ
1115 PM MST THU SEP 03 2015

AZZ504>506-514-040715-
LOCATION       SKY/WX    TMP DP  RH WIND       PRES   REMARKS
TUCSON         PTCLDY    70  65  84 E7        29.96F
DAVIS-MONTHAN  PTCLDY    70  65  84 E8        29.95F
CHILDRENS PARK N/A      N/A N/A  90 E2                PIMA CO DEQ
ALVERNON/22ND  N/A       71 N/A N/A E3                PIMA CO DEQ
CHERRY/GLENN   N/A       71 N/A N/A W12               PIMA CO DEQ
TANGERINE      N/A       69 N/A N/A E8                PIMA CO DEQ
CONTL RANCH    N/A       72  65  80 SE7               PIMA CO DEQ
GRANT/1ST      N/A       80  73  80 E2                PIMA CO DEQ
CRAYCROFT/22ND N/A       70  66  87 E5                PIMA CO DEQ
GOLFLINKS/KOLB N/A      N/A N/A N/A N/A               PIMA CO DEQ
AJO/12TH       N/A       69  67  92 SE4               PIMA CO DEQ
SAGUARO EAST   N/A       21  19  92 SE2               PIMA CO DEQ
FAIRGROUNDS    N/A       66 N/A N/A N/A               PIMA CO DEQ
SAGUARO        N/A       69  66  90 NE2               *SABINO CYN
SAN CARLOS     N/A       76  60  57 E2                *SAN CARLOS
GREEN VALLEY   N/A       68  66  94 SW8               PIMA CO DEQ
HORSE CAMP CYN N/A       68  55  63 E11G14            *ARAVAIPA CYN
RINCON MTNS    N/A       52  46  80 E3                *NR MANNING CAMP
$$

AZZ509>511-040715-
LOCATION       SKY/WX    TMP DP  RH WIND       PRES   REMARKS
SAFFORD        CLOUDY    73  59  61 SE9       29.96F
STRAY HORSE    N/A       56  52  85 E4                *
TRAIL CABIN    N/A       61  55  82 SE4               *N OF GRANVILLE
BLACK HILLS    N/A       74  59  60 SE3               *N OF FT THOMAS
DRY LAKE       N/A       59  53  80 SE3               *NATANES MTNS
NOON CREEK     N/A       65  55  69 SW6G11            *PINALENO MTNS
COLUMBINE      N/A       51  43  75 S4                *PINALENO MTNS
GUTHRIE        N/A       64  47  53 N2G10             *SW OF GUTHRIE
$$

AZZ502-503-513-040715-
LOCATION       SKY/WX    TMP DP  RH WIND       PRES   REMARKS
NOGALES        PTCLDY    63  61  93 NE5       30.03F
SELLS          N/A       72  64  77 S7G13             *
SASABE         N/A       65  64  96 CALM              *ALTAR VLY
HOPKINS        N/A       56  48  74 E17G20            *SANTA RITA MTNS
CARR CYN       N/A       58  55  91 SW2               *W OF HEREFORD
$$

AZZ507-508-512-040715-
LOCATION       SKY/WX    TMP DP  RH WIND       PRES   REMARKS
SIERRA VISTA   MOCLDY    64  58  82 S7        30.08F
DOUGLAS        CLOUDY    62  60  93 E6        30.06F
EMPIRE MTNS    N/A       62  59  90 S7                *LAS CIENEGAS NCA
MULESHOE RANCH N/A       64  59  84 SE3G11            *PRESERVE
HEADQUARTERS   N/A       61  50  68 E3                *CHIRICAHUA MTNS
$$

.............................NOTES.............................
THIS IS AN AUTOMATED COLLECTIVE WITH MINIMAL QUALITY CONTROL.
PIMA CO DEQ SITES HAVE NONSTANDARD WIND SENSOR HEIGHTS.
PIMA CO DEQ SITES DO NOT REPORT WIND GUSTS.
* INDICATES WIND SENSORS LOCATED AT 20 FEET INSTEAD OF 33 FEET.
..............................KEY..............................
SKY/WX - SKY CONDITION/WEATHER
TMP    - TEMPERATURE IN FAHRENHEIT
DP     - DEWPOINT IN FAHRENHEIT
RH     - RELATIVE HUMIDITY IN PERCENT
WIND   - DIRECTION AND SPEED IN MILES PER HOUR (MPH)
VRB    - VARIABLE WIND DIRECTION
PRES   - MEAN SEA LEVEL PRESSURE IN INCHES OF MERCURY
         F - FALLING PRESSURE   R - RISING PRESSURE
         S - STEADY PRESSURE
VSB    - VISIBILITY IN MILES
HX     - HEAT INDEX IN FAHRENHEIT
WCI    - WIND CHILL INDEX IN FAHRENHEIT
N/A    - NOT AVAILABLE
AFB    - AIR FORCE BASE
         DAVIS-MONTHAN IS DAVIS-MONTHAN AIR FORCE BASE
CYN    - CANYON
MTNS   - MOUNTAINS
NCA    - NATIONAL CONSERVATION AREA
NR     - NEAR
VLY    - VALLEY
CONTL  - CONTINENTAL
PIMA CO DEQ - PIMA COUNTY DEPT OF ENVIRONMENTAL QUALITY



USA.gov is the U.S. government's official web portal to all federal, state and local government web resources and services.